When you browse on this site, cookies collect data to enhance your experience and personalize the content and advertising you see.
Visit our Privacy Policy to learn more. By continuing to use the site, you agree to this use of cookies and data.
  • En España
  • Lista de países
  • Para 7 días
  • Temperatura del agua
  • El tiempo en el mapa
  • Informadores
  • user-avatar
    Iniciar sesión

    Tiempo cada hora Kruhlyk

    Hoy, 21 Septiembre, Sábado

    Tiempo Temperatura Precipitaciones Viento Presión Humedad
    00:00 +9°C° 0 mm 1 mps 736 mmHg 61%
    01:00 +9°C° 0 mm 1 mps 736 mmHg 63%
    02:00 +8°C° 0 mm 1 mps 736 mmHg 66%
    03:00 +8°C° 0 mm 1 mps 736 mmHg 62%
    04:00 +8°C° 0 mm 1 mps 736 mmHg 66%
    05:00 +7°C° 0 mm 1 mps 736 mmHg 69%
    06:00 +7°C° 0 mm 1 mps 736 mmHg 72%
    07:00 +7°C° 0 mm 2 mps 737 mmHg 67%
    08:00 +9°C° 0 mm 2 mps 737 mmHg 62%
    09:00 +12°C° 0 mm 2 mps 737 mmHg 55%
    10:00 +12°C° 0.3 mm 3 mps 737 mmHg 51%
    11:00 +13°C° 0.3 mm 4 mps 737 mmHg 47%
    12:00 +14°C° 0.3 mm 4 mps 737 mmHg 43%
    13:00 +13°C° 0.6 mm 5 mps 737 mmHg 44%
    14:00 +13°C° 0.6 mm 5 mps 737 mmHg 44%
    15:00 +13°C° 0 mm 5 mps 738 mmHg 44%
    16:00 +13°C° 0.2 mm 5 mps 738 mmHg 47%
    17:00 +12°C° 0.2 mm 4 mps 738 mmHg 50%
    18:00 +11°C° 0.2 mm 3 mps 738 mmHg 53%
    19:00 +10°C° 0 mm 3 mps 738 mmHg 57%
    20:00 +9°C° 0 mm 3 mps 738 mmHg 62%
    21:00 +8°C° 0 mm 3 mps 739 mmHg 66%
    22:00 +7°C° 0 mm 3 mps 739 mmHg 65%
    23:00 +7°C° 0 mm 3 mps 739 mmHg 64%

    Mañana, 22 Septiembre, Domingo

    Tiempo Temperatura Precipitaciones Viento Presión Humedad
    00:00 +7°C° 0 mm 3 mps 739 mmHg 63%
    01:00 +6°C° 0 mm 4 mps 739 mmHg 64%
    02:00 +5°C° 0 mm 4 mps 739 mmHg 64%
    03:00 +5°C° 0 mm 4 mps 739 mmHg 65%
    04:00 +5°C° 0 mm 4 mps 738 mmHg 63%
    05:00 +5°C° 0 mm 5 mps 738 mmHg 61%
    06:00 +4°C° 0 mm 6 mps 737 mmHg 59%
    07:00 +6°C° 0 mm 7 mps 737 mmHg 57%
    08:00 +7°C° 0 mm 8 mps 737 mmHg 55%
    09:00 +8°C° 0 mm 9 mps 737 mmHg 53%
    10:00 +8°C° 0.1 mm 9 mps 736 mmHg 60%
    11:00 +8°C° 0.1 mm 9 mps 736 mmHg 67%
    12:00 +10°C° 0.1 mm 9 mps 735 mmHg 74%
    13:00 +11°C° 0.1 mm 9 mps 735 mmHg 73%
    14:00 +11°C° 0.1 mm 9 mps 735 mmHg 72%
    15:00 +12°C° 0.1 mm 9 mps 735 mmHg 71%
    16:00 +12°C° 0 mm 8 mps 735 mmHg 70%
    17:00 +12°C° 0 mm 8 mps 735 mmHg 68%
    18:00 +14°C° 0 mm 7 mps 735 mmHg 67%
    19:00 +12°C° 0 mm 7 mps 735 mmHg 68%
    20:00 +12°C° 0 mm 7 mps 735 mmHg 69%
    21:00 +11°C° 0 mm 6 mps 735 mmHg 70%
    22:00 +13°C° 0 mm 6 mps 735 mmHg 70%
    23:00 +13°C° 0 mm 6 mps 735 mmHg 69%

    Pasado mañana, 23 Septiembre, Lunes

    Tiempo Temperatura Precipitaciones Viento Presión Humedad
    00:00 +13°C° 0 mm 6 mps 735 mmHg 69%
    01:00 +12°C° 0 mm 5 mps 736 mmHg 72%
    02:00 +11°C° 0 mm 4 mps 736 mmHg 76%
    03:00 +10°C° 0 mm 3 mps 736 mmHg 80%
    04:00 +10°C° 0.1 mm 3 mps 736 mmHg 81%
    05:00 +9°C° 0.1 mm 3 mps 736 mmHg 81%
    06:00 +8°C° 0.1 mm 3 mps 737 mmHg 82%
    07:00 +8°C° 0.4 mm 3 mps 737 mmHg 82%
    08:00 +8°C° 0.4 mm 3 mps 738 mmHg 83%
    09:00 +7°C° 0.4 mm 3 mps 738 mmHg 83%
    10:00 +8°C° 0.1 mm 3 mps 738 mmHg 75%
    11:00 +9°C° 0.1 mm 3 mps 739 mmHg 66%
    12:00 +10°C° 0.1 mm 3 mps 739 mmHg 58%
    13:00 +11°C° 0 mm 3 mps 739 mmHg 50%
    14:00 +12°C° 0 mm 3 mps 739 mmHg 42%
    15:00 +13°C° 0 mm 3 mps 739 mmHg 34%
    16:00 +12°C° 0 mm 3 mps 739 mmHg 35%
    17:00 +12°C° 0 mm 2 mps 740 mmHg 36%
    18:00 +10°C° 0 mm 2 mps 740 mmHg 37%
    19:00 +10°C° 0 mm 1 mps 740 mmHg 38%
    20:00 +9°C° 0 mm 1 mps 740 mmHg 40%
    21:00 +8°C° 0 mm 1 mps 741 mmHg 42%
    22:00 +8°C° 0 mm 1 mps 741 mmHg 43%
    23:00 +8°C° 0 mm 1 mps 741 mmHg 44%

    24 Septiembre, Martes

    Tiempo Temperatura Precipitaciones Viento Presión Humedad
    00:00 +7°C° 0 mm 1 mps 741 mmHg 45%
    01:00 +7°C° 0 mm 1 mps 741 mmHg 46%
    02:00 +6°C° 0 mm 1 mps 741 mmHg 46%
    03:00 +6°C° 0 mm 1 mps 741 mmHg 47%
    04:00 +6°C° 0 mm 1 mps 741 mmHg 48%
    05:00 +6°C° 0 mm 1 mps 741 mmHg 48%
    06:00 +5°C° 0 mm 1 mps 741 mmHg 49%
    07:00 +7°C° 0 mm 1 mps 741 mmHg 45%
    08:00 +9°C° 0 mm 1 mps 741 mmHg 40%
    09:00 +10°C° 0 mm 2 mps 741 mmHg 36%
    10:00 +12°C° 0 mm 1 mps 741 mmHg 33%
    11:00 +14°C° 0 mm 1 mps 741 mmHg 30%
    12:00 +15°C° 0 mm 1 mps 741 mmHg 26%
    13:00 +16°C° 0 mm 1 mps 741 mmHg 26%
    14:00 +16°C° 0 mm 1 mps 740 mmHg 26%
    15:00 +18°C° 0 mm 1 mps 740 mmHg 25%
    16:00 +16°C° 0 mm 1 mps 740 mmHg 29%
    17:00 +15°C° 0 mm 1 mps 739 mmHg 33%
    18:00 +14°C° 0 mm 1 mps 739 mmHg 36%
    19:00 +14°C° 0 mm 1 mps 739 mmHg 36%
    20:00 +13°C° 0 mm 1 mps 739 mmHg 36%
    21:00 +13°C° 0 mm 1 mps 739 mmHg 35%
    22:00 +13°C° 0 mm 1 mps 739 mmHg 35%
    23:00 +13°C° 0 mm 1 mps 739 mmHg 35%

    25 Septiembre, Miércoles

    Tiempo Temperatura Precipitaciones Viento Presión Humedad
    00:00 +12°C° 0 mm 1 mps 739 mmHg 35%
    01:00 +12°C° 0 mm 2 mps 739 mmHg 37%
    02:00 +10°C° 0 mm 2 mps 739 mmHg 38%
    03:00 +9°C° 0 mm 2 mps 739 mmHg 39%
    04:00 +9°C° 0 mm 2 mps 739 mmHg 40%
    05:00 +9°C° 0 mm 2 mps 739 mmHg 41%
    06:00 +8°C° 0 mm 2 mps 739 mmHg 43%
    07:00 +9°C° 0 mm 2 mps 739 mmHg 41%
    08:00 +10°C° 0 mm 2 mps 739 mmHg 39%
    09:00 +13°C° 0 mm 2 mps 739 mmHg 38%
    10:00 +13°C° 0 mm 2 mps 739 mmHg 37%
    11:00 +14°C° 0 mm 2 mps 739 mmHg 36%
    12:00 +15°C° 0 mm 2 mps 739 mmHg 35%
    13:00 +16°C° 0 mm 2 mps 739 mmHg 35%
    14:00 +17°C° 0 mm 2 mps 739 mmHg 36%
    15:00 +17°C° 0 mm 2 mps 739 mmHg 36%
    16:00 +17°C° 0 mm 2 mps 739 mmHg 39%
    17:00 +16°C° 0 mm 2 mps 738 mmHg 42%
    18:00 +15°C° 0 mm 2 mps 738 mmHg 44%
    19:00 +14°C° 0 mm 2 mps 738 mmHg 46%
    20:00 +13°C° 0 mm 2 mps 739 mmHg 47%
    21:00 +12°C° 0 mm 2 mps 739 mmHg 49%
    22:00 +12°C° 0 mm 2 mps 739 mmHg 49%
    23:00 +12°C° 0 mm 2 mps 738 mmHg 48%

    26 Septiembre, Jueves

    Tiempo Temperatura Precipitaciones Viento Presión Humedad
    00:00 +10°C° 0 mm 2 mps 738 mmHg 48%
    01:00 +10°C° 0 mm 2 mps 738 mmHg 50%
    02:00 +10°C° 0 mm 2 mps 738 mmHg 52%
    03:00 +10°C° 0 mm 2 mps 738 mmHg 54%
    04:00 +9°C° 0 mm 2 mps 738 mmHg 61%
    05:00 +9°C° 0 mm 3 mps 738 mmHg 68%
    06:00 +9°C° 0 mm 3 mps 738 mmHg 76%
    07:00 +11°C° 0 mm 3 mps 738 mmHg 72%
    08:00 +12°C° 0 mm 4 mps 738 mmHg 68%
    09:00 +14°C° 0 mm 4 mps 738 mmHg 64%
    10:00 +17°C° 0 mm 4 mps 738 mmHg 60%
    11:00 +18°C° 0 mm 4 mps 738 mmHg 56%
    12:00 +20°C° 0 mm 5 mps 738 mmHg 52%
    13:00 +21°C° 0 mm 4 mps 737 mmHg 50%
    14:00 +21°C° 0 mm 4 mps 737 mmHg 49%
    15:00 +22°C° 0 mm 4 mps 736 mmHg 47%
    16:00 +21°C° 0 mm 4 mps 736 mmHg 51%
    17:00 +20°C° 0 mm 3 mps 735 mmHg 54%
    18:00 +19°C° 0 mm 2 mps 735 mmHg 58%
    19:00 +18°C° 0 mm 2 mps 735 mmHg 59%
    20:00 +18°C° 0 mm 2 mps 735 mmHg 61%
    21:00 +17°C° 0 mm 2 mps 735 mmHg 62%
    22:00 +17°C° 0 mm 2 mps 735 mmHg 62%
    23:00 +17°C° 0 mm 2 mps 734 mmHg 62%
    Mostrar más